[[{"header":{"parameterUnit":"m.s-1","parameterCategory":1,"la1":30.2991,"la2":30.254,"lo1":-89.0895,"lo2":-89.0444,"dy":0.0017,"dx":0.0017,"nx":28,"ny":28,"refTime":"2024-07-01T09:00:00:Z","depth":0,"parameterNumber":2,"parameterNumberName":"U-component_of_WINDS"},"data":[0,0,0,0,0,0,0,0,0,0,0,0,0,0,0,0,0,0,0,0,0,0,0,0,0,0,0,0,0,0,0,0,0,0,0,0,0,0,0,0,0,0,0,0,0,0,0,0,0,0,0,0,0,0,0,0,0,0,1.6131,1.6132,0,1.6211,1.6212,1.6213,1.6234,1.6234,1.6233,1.6233,1.6317,1.6319,1.6322,0,0,0,0,0,0,0,0,0,0,0,0,0,1.5998,1.6,1.6131,1.6132,1.6133,1.6211,1.6212,1.6213,1.6234,1.6234,1.6233,1.6233,1.6316,1.6319,1.6322,0,0,0,0,0,0,0,0,0,0,0,0,0,1.6065,1.6001,1.6131,1.6153,1.6156,1.6211,1.6212,1.6213,1.6235,1.6234,1.6233,1.6232,1.6315,1.6318,1.6322,1.6362,0,0,1.6335,1.6336,0,0,0,0,0,0,0,0,1.6061,1.607,1.6149,1.6151,1.6155,1.6212,1.6196,1.6263,1.6235,1.6205,1.6233,1.6232,1.6282,1.6289,1.6306,1.6366,1.6369,1.6335,1.6337,1.6339,1.634,0,0,0,0,0,0,0,1.6056,1.6066,1.6163,1.615,1.6153,1.6159,1.6168,1.6209,1.6247,1.6207,1.6209,1.6218,1.6284,1.6302,1.6308,1.637,1.6335,1.6339,1.6341,1.6343,1.6467,1.6468,0,0,0,0,0,0,1.6048,1.6062,1.616,1.6165,1.6105,1.6162,1.6172,1.6194,1.6246,1.6253,1.6219,1.6219,1.6295,1.6303,1.6311,1.636,1.6339,1.6343,1.6345,1.6466,1.6467,1.6468,0,0,0,0,0,0,1.6045,1.6056,1.6157,1.6114,1.6127,1.6165,1.619,1.6196,1.6214,1.6255,1.6262,1.623,1.6295,1.6305,1.6349,1.6363,1.6345,1.6348,1.6465,1.6467,1.6468,1.6458,0,0,0,0,0,0,1.6041,1.6055,1.607,1.6114,1.613,1.6193,1.6191,1.6198,1.6221,1.6222,1.6267,1.6274,1.6295,1.6343,1.6353,1.6368,1.6352,1.6464,1.6466,1.6467,1.6458,1.6459,1.6461,0,0,0,0,0,1.6036,1.6064,1.607,1.6082,1.6149,1.6194,1.6202,1.6226,1.6222,1.6237,1.6264,1.6273,1.636,1.6347,1.6359,1.6375,1.6463,1.6465,1.6467,1.6457,1.6459,1.6461,0,0,0,0,0,0,1.602,1.607,1.6078,1.6121,1.6153,1.6197,1.6217,1.6227,1.6261,1.6261,1.6289,1.6299,1.6341,1.6363,1.6347,1.6417,1.6412,1.6416,1.64,1.6402,1.6404,1.6397,1.6355,0,0,0,0,0,1.6022,1.6053,1.6096,1.613,1.6146,1.6179,1.6199,1.6214,1.6249,1.6262,1.6292,1.6325,1.6361,1.6383,1.6418,1.6462,1.6472,1.6479,1.6481,1.6482,1.6485,1.651,1.6514,1.6475,1.6475,1.6475,0,0,1.6025,1.6057,1.6075,1.6128,1.6154,1.6187,1.619,1.6224,1.6249,1.6268,1.631,1.6333,1.6373,1.6417,1.6438,1.6436,1.6498,1.6484,1.6485,1.6487,1.6512,1.6516,1.6519,1.6476,1.6476,1.6476,0,0,1.6048,1.6075,1.6106,1.6133,1.6173,1.6195,1.6202,1.6245,1.6261,1.6305,1.632,1.635,1.641,1.6437,1.6459,1.6494,1.6503,1.6504,1.6512,1.6536,1.6539,1.6542,1.6554,1.6558,1.6508,1.6508,1.6508,0,1.6047,1.6096,1.6121,1.6155,1.6177,1.6197,1.6229,1.6254,1.6303,1.6319,1.6317,1.6393,1.6421,1.6471,1.648,1.6497,1.6507,1.6498,1.6537,1.654,1.6543,1.6554,1.6559,1.6508,1.6508,1.6508,1.6508,0,1.6093,1.6127,1.6148,1.6194,1.622,1.6253,1.6283,1.6306,1.632,1.6342,1.6387,1.6421,1.6463,1.6477,1.6491,1.653,1.6527,1.6531,1.6527,1.6546,1.6557,1.6562,1.6507,1.6507,1.6507,1.6507,0,0,1.6106,1.6167,1.6174,1.6196,1.6242,1.6269,1.6303,1.6344,1.6363,1.6397,1.6426,1.6477,1.6481,1.6506,1.6523,1.6545,1.6569,1.6546,1.6547,1.6548,1.6614,1.661,1.6615,1.6577,1.6578,1.6578,1.6611,0,1.6134,1.6195,1.6219,1.6268,1.63,1.6319,1.6349,1.6381,1.6403,1.6434,1.646,1.6495,1.6497,1.6512,1.6534,1.6561,1.6583,1.656,1.6604,1.6606,1.6592,1.6621,1.6617,1.6646,1.6615,1.6616,1.6617,0,1.6174,1.6208,1.626,1.6303,1.6317,1.6343,1.6383,1.6412,1.6449,1.6464,1.6492,1.6509,1.6546,1.6541,1.6593,1.6576,1.6597,1.6613,1.6615,1.6619,1.6611,1.6625,1.6656,1.666,1.6624,1.6624,1.6623,0,1.6178,1.6237,1.6275,1.6293,1.6344,1.6362,1.6384,1.6421,1.6444,1.6479,1.6494,1.6534,1.6555,1.6585,1.6612,1.6606,1.6662,1.6659,1.6676,1.6675,1.6685,1.6684,1.6718,1.67,1.67,1.67,1.67,0,1.6205,1.6236,1.6278,1.6301,1.6337,1.6365,1.64,1.6424,1.6456,1.6486,1.6506,1.6533,1.6567,1.6599,1.6621,1.6661,1.6671,1.6684,1.6689,1.6681,1.668,1.6694,1.6692,1.6701,1.6701,1.6701,1.67,0,1.6214,1.6243,1.6287,1.6332,1.6344,1.6368,1.6407,1.6431,1.6455,1.6492,1.6502,1.654,1.6579,1.6609,1.666,1.6674,1.6716,1.6722,1.6703,1.6706,1.672,1.6718,1.6764,1.6772,1.6749,1.6749,1.6749,0,1.623,1.6254,1.6301,1.6322,1.6344,1.6377,1.6401,1.643,1.6454,1.6499,1.6518,1.6558,1.6591,1.6653,1.6685,1.6724,1.6731,1.6744,1.6737,1.6728,1.673,1.6728,1.673,1.6745,1.6745,1.6745,1.6745,0,1.6253,1.6266,1.6299,1.6337,1.6365,1.6397,1.6429,1.6445,1.648,1.6506,1.6546,1.6572,1.6624,1.6663,1.6706,1.673,1.6743,1.6747,1.6753,1.6745,1.6732,1.6739,1.6704,1.6746,1.6746,1.6746,1.6746,1.6746,1.6266,1.6288,1.6325,1.6361,1.6388,1.6418,1.6443,1.647,1.6503,1.6547,1.6562,1.6603,1.6641,1.6699,1.6724,1.6757,1.6758,1.6766,1.6768,1.6769,1.6768,1.6728,1.6765,1.6765,1.6765,1.6765,1.6765,0,1.6289,1.6314,1.6347,1.6391,1.642,1.643,1.6467,1.649,1.6525,1.6559,1.6591,1.6637,1.6676,1.6712,1.6753,1.6772,1.6779,1.6782,1.678,1.6785,1.6766,1.6756,1.6775,1.6775,1.6775,1.6775,1.6775,1.6775,1.6305,1.6344,1.6361,1.6414,1.6439,1.6478,1.6498,1.6526,1.6553,1.6603,1.6635,1.6658,1.6693,1.6736,1.6773,1.6782,1.6796,1.6797,1.6808,1.6788,1.6787,1.6785,1.6777,1.68,1.68,1.6825,1.6825,1.6825]},{"header":{"parameterUnit":"m.s-1","parameterCategory":1,"la1":30.2991,"la2":30.254,"lo1":-89.0895,"lo2":-89.0444,"dy":0.0017,"dx":0.0017,"nx":28,"ny":28,"refTime":"2024-07-01T09:00:00:Z","depth":0,"parameterNumber":3,"parameterNumberName":"V-component_of_WINDS"},"data":[0,0,0,0,0,0,0,0,0,0,0,0,0,0,0,0,0,0,0,0,0,0,0,0,0,0,0,0,0,0,0,0,0,0,0,0,0,0,0,0,0,0,0,0,0,0,0,0,0,0,0,0,0,0,0,0,0,0,-0.0497,-0.0498,0,-0.0571,-0.0571,-0.0572,-0.0619,-0.0619,-0.062,-0.062,-0.0697,-0.0699,-0.0701,0,0,0,0,0,0,0,0,0,0,0,0,0,-0.04,-0.0402,-0.0497,-0.0498,-0.0499,-0.057,-0.0571,-0.0572,-0.0619,-0.0619,-0.062,-0.062,-0.0697,-0.0699,-0.0701,0,0,0,0,0,0,0,0,0,0,0,0,0,-0.0455,-0.0402,-0.0497,-0.0531,-0.0535,-0.057,-0.0571,-0.0573,-0.0619,-0.0619,-0.062,-0.062,-0.0696,-0.0699,-0.0701,-0.071,0,0,-0.071,-0.0711,0,0,0,0,0,0,0,0,-0.0452,-0.0458,-0.0525,-0.0529,-0.0533,-0.0586,-0.0566,-0.0619,-0.0619,-0.0587,-0.062,-0.062,-0.066,-0.0666,-0.0679,-0.0713,-0.0717,-0.071,-0.0711,-0.0713,-0.0713,0,0,0,0,0,0,0,-0.0448,-0.0455,-0.0526,-0.0526,-0.0531,-0.0543,-0.0551,-0.0576,-0.062,-0.059,-0.0593,-0.0601,-0.0662,-0.0676,-0.0681,-0.0718,-0.071,-0.0712,-0.0714,-0.0715,-0.0763,-0.0763,0,0,0,0,0,0,-0.0438,-0.0452,-0.0524,-0.0529,-0.0492,-0.0545,-0.0554,-0.0569,-0.062,-0.0629,-0.0601,-0.0603,-0.0671,-0.0678,-0.0684,-0.0697,-0.0713,-0.0715,-0.0717,-0.0764,-0.0763,-0.0763,0,0,0,0,0,0,-0.0436,-0.0444,-0.0521,-0.0491,-0.0502,-0.0546,-0.0562,-0.057,-0.0584,-0.0629,-0.0637,-0.0606,-0.0672,-0.068,-0.0703,-0.0701,-0.0716,-0.0719,-0.0764,-0.0764,-0.0763,-0.0724,0,0,0,0,0,0,-0.0433,-0.0443,-0.0446,-0.0491,-0.0503,-0.0538,-0.0562,-0.0571,-0.0588,-0.0592,-0.0636,-0.0644,-0.0673,-0.0699,-0.0705,-0.0705,-0.0721,-0.0765,-0.0764,-0.0763,-0.0725,-0.0722,-0.0719,0,0,0,0,0,-0.0429,-0.0433,-0.0446,-0.0455,-0.0508,-0.0538,-0.0545,-0.0577,-0.0587,-0.0591,-0.062,-0.0642,-0.0699,-0.07,-0.0709,-0.0708,-0.0765,-0.0764,-0.0763,-0.0727,-0.0723,-0.0719,0,0,0,0,0,0,-0.0388,-0.0439,-0.0455,-0.0473,-0.05,-0.0546,-0.0552,-0.0572,-0.0598,-0.0601,-0.0641,-0.065,-0.0669,-0.0691,-0.0691,-0.0719,-0.0735,-0.0736,-0.0704,-0.0701,-0.0697,-0.0692,-0.0723,0,0,0,0,0,-0.038,-0.04,-0.0444,-0.0455,-0.0468,-0.0507,-0.0522,-0.0544,-0.0575,-0.0587,-0.0618,-0.0647,-0.0672,-0.0688,-0.0713,-0.0729,-0.0739,-0.0733,-0.0729,-0.0727,-0.0727,-0.0737,-0.0735,-0.076,-0.076,-0.076,0,0,-0.0366,-0.0397,-0.0406,-0.0448,-0.0472,-0.0492,-0.0517,-0.0537,-0.0552,-0.0591,-0.0614,-0.0637,-0.0673,-0.0692,-0.0702,-0.0711,-0.0722,-0.0726,-0.0723,-0.0725,-0.0736,-0.0734,-0.0731,-0.076,-0.076,-0.076,0,0,-0.035,-0.0374,-0.0387,-0.041,-0.0446,-0.0472,-0.0475,-0.0517,-0.0534,-0.0557,-0.0587,-0.0606,-0.0647,-0.0671,-0.0689,-0.0681,-0.0703,-0.0689,-0.0672,-0.0681,-0.0679,-0.0678,-0.0675,-0.0674,-0.0689,-0.0689,-0.0689,0,-0.0327,-0.0357,-0.0391,-0.0408,-0.0426,-0.0461,-0.0474,-0.0495,-0.0538,-0.0549,-0.0559,-0.0611,-0.0638,-0.0663,-0.0661,-0.0675,-0.068,-0.0684,-0.0677,-0.0675,-0.0674,-0.0672,-0.0671,-0.0687,-0.0687,-0.0687,-0.0687,0,-0.0328,-0.0348,-0.0354,-0.0393,-0.0412,-0.0427,-0.0463,-0.0478,-0.0498,-0.0523,-0.0547,-0.058,-0.0613,-0.062,-0.0641,-0.0649,-0.0653,-0.0669,-0.0685,-0.0669,-0.0668,-0.0668,-0.0684,-0.0685,-0.0685,-0.0686,0,0,-0.0288,-0.0345,-0.0347,-0.0365,-0.0407,-0.0423,-0.044,-0.0471,-0.0483,-0.0511,-0.0527,-0.0561,-0.0576,-0.0596,-0.062,-0.0628,-0.062,-0.0643,-0.0644,-0.0637,-0.063,-0.0618,-0.0617,-0.0634,-0.0634,-0.0634,-0.0627,0,-0.0278,-0.031,-0.034,-0.0361,-0.038,-0.0413,-0.0428,-0.0456,-0.048,-0.05,-0.0527,-0.055,-0.0568,-0.058,-0.059,-0.0618,-0.0619,-0.0619,-0.065,-0.065,-0.064,-0.0616,-0.0604,-0.0596,-0.0627,-0.0627,-0.0627,0,-0.0271,-0.0297,-0.0319,-0.0359,-0.0368,-0.0381,-0.0411,-0.043,-0.0462,-0.0479,-0.0501,-0.0526,-0.0546,-0.056,-0.0589,-0.0588,-0.0603,-0.0619,-0.0619,-0.0623,-0.0638,-0.062,-0.0594,-0.0593,-0.0627,-0.0627,-0.0627,0,-0.024,-0.028,-0.0299,-0.0313,-0.036,-0.0368,-0.0388,-0.0421,-0.0437,-0.0464,-0.0475,-0.0504,-0.052,-0.0543,-0.0575,-0.0582,-0.0601,-0.0617,-0.0616,-0.0615,-0.0618,-0.0618,-0.0594,-0.0627,-0.0627,-0.0627,-0.0627,0,-0.0226,-0.0238,-0.0285,-0.0296,-0.0312,-0.0346,-0.0361,-0.0384,-0.0412,-0.0429,-0.046,-0.0475,-0.0517,-0.0538,-0.0564,-0.0583,-0.0591,-0.0605,-0.0612,-0.0602,-0.0601,-0.0613,-0.0614,-0.0627,-0.0627,-0.0627,-0.0627,0,-0.0194,-0.0226,-0.0248,-0.029,-0.0301,-0.031,-0.0346,-0.0359,-0.0384,-0.0405,-0.0412,-0.0452,-0.0478,-0.0512,-0.0549,-0.0567,-0.0583,-0.0594,-0.0572,-0.0576,-0.0573,-0.0573,-0.0557,-0.0556,-0.0588,-0.0588,-0.0588,0,-0.0183,-0.0193,-0.0236,-0.0249,-0.0268,-0.0288,-0.0305,-0.034,-0.0356,-0.0393,-0.0401,-0.0429,-0.0454,-0.0493,-0.0526,-0.0555,-0.0566,-0.0558,-0.0571,-0.0561,-0.0566,-0.0565,-0.0567,-0.0556,-0.0555,-0.0555,-0.0554,0,-0.0161,-0.0175,-0.0198,-0.0225,-0.0244,-0.0268,-0.0293,-0.0302,-0.0342,-0.0359,-0.0385,-0.0404,-0.0441,-0.0468,-0.0501,-0.0523,-0.0545,-0.055,-0.0551,-0.0542,-0.0529,-0.0536,-0.0564,-0.055,-0.0551,-0.0551,-0.0551,-0.0551,-0.0139,-0.015,-0.0181,-0.0205,-0.0227,-0.025,-0.0263,-0.029,-0.0312,-0.0344,-0.0363,-0.0389,-0.0421,-0.0467,-0.0487,-0.0508,-0.0517,-0.0519,-0.0519,-0.0519,-0.0516,-0.0525,-0.0514,-0.0514,-0.0515,-0.0515,-0.0515,0,-0.0118,-0.014,-0.0161,-0.0195,-0.0214,-0.0232,-0.0261,-0.0275,-0.0297,-0.0324,-0.0347,-0.0377,-0.0404,-0.0438,-0.0468,-0.0478,-0.0489,-0.0484,-0.0484,-0.0489,-0.0506,-0.0502,-0.0475,-0.0475,-0.0475,-0.0475,-0.0475,-0.0475,-0.011,-0.0128,-0.0147,-0.0177,-0.0199,-0.0223,-0.0238,-0.0259,-0.0281,-0.0313,-0.0335,-0.0356,-0.0387,-0.0418,-0.0444,-0.0453,-0.0463,-0.0455,-0.0468,-0.0484,-0.0487,-0.0491,-0.0487,-0.0457,-0.0457,-0.0448,-0.0448,-0.0448]}]]